| time (UTC) | temp F | wind direction | speed MPH | gust MPH | rain 1hr in | rain 24hr in | rain mn in | humidity % | barometer mb |
| 20260504020256 | 61 | 137 | 7.0 | 11.0 | 0.00 | 0.00 | 0.00 | ||
| 20260504015854 | 61 | 137 | 9.0 | 14.0 | 0.00 | 0.00 | 0.00 | ||
| 20260504015452 | 61 | 137 | 8.0 | 12.0 | 0.00 | 0.00 | 0.00 | ||
| 20260504015051 | 61 | 138 | 7.0 | 10.0 | 0.00 | 0.00 | 0.00 | ||
| 20260504014650 | 61 | 138 | 6.0 | 10.0 | 0.00 | 0.00 | 0.00 | ||
| 20260504014247 | 61 | 131 | 9.0 | 13.0 | 0.00 | 0.00 | 0.00 | ||
| 20260504013839 | 61 | 136 | 7.0 | 9.0 | 0.00 | 0.00 | 0.00 | ||
| 20260504013437 | 61 | 138 | 9.0 | 12.0 | 0.00 | 0.00 | 0.00 | ||
| 20260504013036 | 61 | 138 | 9.0 | 12.0 | 0.00 | 0.00 | 0.00 | ||
| 20260504012634 | 61 | 135 | 8.0 | 12.0 | 0.00 | 0.00 | 0.00 | ||
| 20260504012233 | 61 | 137 | 8.0 | 12.0 | 0.00 | 0.00 | 0.00 | ||
| 20260504011832 | 61 | 129 | 7.0 | 12.0 | 0.00 | 0.00 | 0.00 | ||
| 20260504011430 | 61 | 133 | 8.0 | 16.0 | 0.00 | 0.00 | 0.00 | ||
| 20260504011029 | 61 | 143 | 6.0 | 10.0 | 0.00 | 0.00 | 0.00 | ||
| 20260504010627 | 61 | 144 | 4.0 | 6.0 | 0.00 | 0.00 | 0.00 | ||
| 20260504010225 | 61 | 153 | 6.0 | 9.0 | 0.00 | 0.00 | 0.00 | ||
| 20260504005817 | 61 | 152 | 7.0 | 11.0 | 0.00 | 0.00 | 0.00 | ||
| 20260504005415 | 61 | 152 | 5.0 | 8.0 | 0.00 | 0.00 | 0.00 | ||
| 20260504005013 | 61 | 147 | 5.0 | 9.0 | 0.00 | 0.00 | 0.00 | ||
| 20260504004612 | 61 | 157 | 4.0 | 8.0 | 0.00 | 0.00 | 0.00 | ||
| 20260504004210 | 61 | 156 | 5.0 | 7.0 | 0.00 | 0.00 | 0.00 | ||
| 20260504003809 | 61 | 145 | 5.0 | 8.0 | 0.00 | 0.00 | 0.00 | ||
| 20260504003406 | 61 | 154 | 6.0 | 9.0 | 0.00 | 0.00 | 0.00 | ||
| 20260504003005 | 61 | 141 | 4.0 | 9.0 | 0.00 | 0.00 | 0.00 | ||
| 20260504002604 | 61 | 134 | 5.0 | 9.0 | 0.00 | 0.00 | 0.00 | ||
| 20260504002202 | 62 | 140 | 5.0 | 10.0 | 0.00 | 0.00 | 0.00 | ||
| 20260504001753 | 61 | 151 | 6.0 | 11.0 | 0.00 | 0.00 | 0.00 | ||
| 20260504001351 | 62 | 139 | 5.0 | 8.0 | 0.00 | 0.00 | 0.00 | ||
| 20260504000950 | 62 | 141 | 5.0 | 9.0 | 0.00 | 0.00 | 0.00 | ||
| 20260504000549 | 62 | 148 | 7.0 | 11.0 | 0.00 | 0.00 | 0.00 | ||
| 20260504000148 | 61 | 135 | 6.0 | 10.0 | 0.00 | 0.00 | 0.00 | ||
| 20260503235344 | 61 | 146 | 8.0 | 12.0 | 0.00 | 0.00 | 0.00 | ||
| 20260503235211 | 61 | 145 | 8.0 | 13.0 | 0.00 | 0.00 | 0.00 | ||
| 20260503234943 | 62 | 144 | 8.0 | 12.0 | 0.00 | 0.00 | 0.00 | ||
| 20260503234542 | 61 | 145 | 8.0 | 13.0 | 0.00 | 0.00 | 0.00 | ||
| 20260503234139 | 62 | 146 | 8.0 | 11.0 | 0.00 | 0.00 | 0.00 | ||
| 20260503233731 | 62 | 143 | 8.0 | 11.0 | 0.00 | 0.00 | 0.00 | ||
| 20260503233329 | 62 | 150 | 8.0 | 13.0 | 0.00 | 0.00 | 0.00 | ||
| 20260503232928 | 62 | 151 | 9.0 | 16.0 | 0.00 | 0.00 | 0.00 | ||
| 20260503232526 | 62 | 155 | 7.0 | 10.0 | 0.00 | 0.00 | 0.00 | ||
| 20260503232124 | 62 | 146 | 7.0 | 10.0 | 0.00 | 0.00 | 0.00 | ||
| 20260503231723 | 62 | 150 | 9.0 | 11.0 | 0.00 | 0.00 | 0.00 | ||
| 20260503231321 | 62 | 150 | 7.0 | 12.0 | 0.00 | 0.00 | 0.00 | ||
| 20260503230919 | 62 | 144 | 7.0 | 9.0 | 0.00 | 0.00 | 0.00 | ||
| 20260503230518 | 62 | 135 | 6.0 | 11.0 | 0.00 | 0.00 | 0.00 | ||
| 20260503230116 | 62 | 153 | 7.0 | 10.0 | 0.00 | 0.00 | 0.00 | ||
| 20260503225708 | 62 | 138 | 6.0 | 10.0 | 0.00 | 0.00 | 0.00 | ||
| 20260503225306 | 62 | 141 | 6.0 | 8.0 | 0.00 | 0.00 | 0.00 | ||
| 20260503224904 | 62 | 145 | 6.0 | 9.0 | 0.00 | 0.00 | 0.00 | ||
| 20260503224503 | 62 | 150 | 7.0 | 10.0 | 0.00 | 0.00 | 0.00 | ||
| 20260503224101 | 62 | 157 | 7.0 | 10.0 | 0.00 | 0.00 | 0.00 | ||
| 20260503223700 | 62 | 153 | 7.0 | 11.0 | 0.00 | 0.00 | 0.00 | ||
| 20260503223257 | 63 | 153 | 7.0 | 11.0 | 0.00 | 0.00 | 0.00 | ||
| 20260503222856 | 63 | 144 | 7.0 | 12.0 | 0.00 | 0.00 | 0.00 | ||
| 20260503222455 | 63 | 151 | 6.0 | 10.0 | 0.00 | 0.00 | 0.00 | ||
| 20260503222053 | 63 | 151 | 6.0 | 8.0 | 0.00 | 0.00 | 0.00 | ||
| 20260503221644 | 63 | 151 | 7.0 | 11.0 | 0.00 | 0.00 | 0.00 | ||
| 20260503221242 | 63 | 146 | 5.0 | 9.0 | 0.00 | 0.00 | 0.00 | ||
| 20260503220841 | 63 | 151 | 7.0 | 10.0 | 0.00 | 0.00 | 0.00 | ||
| 20260503220540 | 62 | 148 | 5.0 | 9.0 | 0.00 | 0.00 | 0.00 | ||
| 20260503220440 | 62 | 148 | 5.0 | 9.0 | 0.00 | 0.00 | 0.00 | ||
| 20260503220036 | 63 | 136 | 6.0 | 9.0 | 0.00 | 0.00 | 0.00 | ||
| 20260503215638 | 62 | 157 | 5.0 | 7.0 | 0.00 | 0.00 | 0.00 | ||
| 20260503215635 | 63 | 145 | 6.0 | 10.0 | 0.00 | 0.00 | 0.00 | ||
| 20260503215233 | 62 | 157 | 5.0 | 7.0 | 0.00 | 0.00 | 0.00 | ||
| 20260503214832 | 63 | 168 | 6.0 | 8.0 | 0.00 | 0.00 | 0.00 | ||
| 20260503214431 | 63 | 151 | 4.0 | 7.0 | 0.00 | 0.00 | 0.00 | ||
| 20260503214027 | 63 | 157 | 4.0 | 5.0 | 0.00 | 0.00 | 0.00 | ||
| 20260503213620 | 63 | 157 | 4.0 | 8.0 | 0.00 | 0.00 | 0.00 | ||
| 20260503213218 | 64 | 158 | 4.0 | 6.0 | 0.00 | 0.00 | 0.00 | ||
| 20260503212817 | 64 | 176 | 4.0 | 7.0 | 0.00 | 0.00 | 0.00 | ||
| 20260503212013 | 64 | 157 | 3.0 | 5.0 | 0.00 | 0.00 | 0.00 | ||
| 20260503211612 | 64 | 157 | 4.0 | 6.0 | 0.00 | 0.00 | 0.00 | ||
| 20260503211210 | 64 | 157 | 4.0 | 9.0 | 0.00 | 0.00 | 0.00 | ||
| 20260503210808 | 63 | 178 | 4.0 | 5.0 | 0.00 | 0.00 | 0.00 | ||
| 20260503210407 | 64 | 170 | 7.0 | 9.0 | 0.00 | 0.00 | 0.00 | ||
| 20260503210006 | 63 | 154 | 4.0 | 7.0 | 0.00 | 0.00 | 0.00 | ||
| 20260503205557 | 63 | 135 | 4.0 | 7.0 | 0.00 | 0.00 | 0.00 | ||
| 20260503205154 | 63 | 135 | 4.0 | 6.0 | 0.00 | 0.00 | 0.00 | ||
| 20260503204753 | 64 | 127 | 5.0 | 6.0 | 0.00 | 0.00 | 0.00 | ||
| 20260503204352 | 64 | 135 | 4.0 | 7.0 | 0.00 | 0.00 | 0.00 | ||
| 20260503203950 | 64 | 135 | 4.0 | 6.0 | 0.00 | 0.00 | 0.00 | ||
| 20260503203549 | 64 | 135 | 4.0 | 6.0 | 0.00 | 0.00 | 0.00 | ||
| 20260503203146 | 64 | 141 | 4.0 | 7.0 | 0.00 | 0.00 | 0.00 | ||
| 20260503202745 | 64 | 137 | 3.0 | 7.0 | 0.00 | 0.00 | 0.00 | ||
| 20260503202345 | 64 | 145 | 5.0 | 8.0 | 0.00 | 0.00 | 0.00 | ||
| 20260503201943 | 64 | 147 | 4.0 | 6.0 | 0.00 | 0.00 | 0.00 | ||
| 20260503201533 | 64 | 141 | 4.0 | 9.0 | 0.00 | 0.00 | 0.00 | ||
| 20260503201132 | 65 | 147 | 5.0 | 8.0 | 0.00 | 0.00 | 0.00 | ||
| 20260503200731 | 65 | 140 | 5.0 | 7.0 | 0.00 | 0.00 | 0.00 | ||
| 20260503200330 | 65 | 154 | 4.0 | 7.0 | 0.00 | 0.00 | 0.00 | ||
| 20260503195927 | 65 | 157 | 5.0 | 8.0 | 0.00 | 0.00 | 0.00 | ||
| 20260503195526 | 65 | 150 | 5.0 | 8.0 | 0.00 | 0.00 | 0.00 | ||
| 20260503195124 | 66 | 156 | 6.0 | 9.0 | 0.00 | 0.00 | 0.00 | ||
| 20260503194723 | 66 | 157 | 6.0 | 9.0 | 0.00 | 0.00 | 0.00 | ||
| 20260503194321 | 66 | 157 | 5.0 | 8.0 | 0.00 | 0.00 | 0.00 | ||
| 20260503193919 | 67 | 156 | 5.0 | 9.0 | 0.00 | 0.00 | 0.00 | ||
| 20260503193511 | 67 | 165 | 6.0 | 8.0 | 0.00 | 0.00 | 0.00 | ||
| 20260503193109 | 68 | 161 | 6.0 | 10.0 | 0.00 | 0.00 | 0.00 | ||
| 20260503192708 | 68 | 165 | 5.0 | 7.0 | 0.00 | 0.00 | 0.00 | ||
| 20260503192306 | 68 | 174 | 7.0 | 10.0 | 0.00 | 0.00 | 0.00 | ||
| 20260503191904 | 69 | 191 | 6.0 | 8.0 | 0.00 | 0.00 | 0.00 | ||
| 20260503191503 | 69 | 172 | 7.0 | 10.0 | 0.00 | 0.00 | 0.00 | ||
| 20260503191101 | 69 | 191 | 6.0 | 9.0 | 0.00 | 0.00 | 0.00 | ||
| 20260503190659 | 69 | 186 | 6.0 | 10.0 | 0.00 | 0.00 | 0.00 | ||
| 20260503190258 | 69 | 202 | 5.0 | 7.0 | 0.00 | 0.00 | 0.00 | ||
| 20260503185856 | 69 | 192 | 7.0 | 9.0 | 0.00 | 0.00 | 0.00 | ||
| 20260503185448 | 70 | 192 | 7.0 | 10.0 | 0.00 | 0.00 | 0.00 | ||
| 20260503185045 | 70 | 182 | 7.0 | 11.0 | 0.00 | 0.00 | 0.00 | ||
| 20260503184644 | 70 | 187 | 8.0 | 11.0 | 0.00 | 0.00 | 0.00 | ||
| 20260503184243 | 70 | 198 | 9.0 | 13.0 | 0.00 | 0.00 | 0.00 | ||
| 20260503183842 | 70 | 194 | 9.0 | 12.0 | 0.00 | 0.00 | 0.00 | ||
| 20260503183439 | 70 | 191 | 8.0 | 10.0 | 0.00 | 0.00 | 0.00 | ||
| 20260503183038 | 70 | 193 | 7.0 | 10.0 | 0.00 | 0.00 | 0.00 | ||
| 20260503182637 | 71 | 189 | 7.0 | 10.0 | 0.00 | 0.00 | 0.00 | ||
| 20260503182236 | 71 | 185 | 7.0 | 9.0 | 0.00 | 0.00 | 0.00 | ||
| 20260503181834 | 71 | 191 | 8.0 | 10.0 | 0.00 | 0.00 | 0.00 | ||
| 20260503181425 | 71 | 180 | 6.0 | 9.0 | 0.00 | 0.00 | 0.00 | ||
| 20260503181023 | 72 | 192 | 7.0 | 9.0 | 0.00 | 0.00 | 0.00 | ||
| 20260503180622 | 72 | 187 | 7.0 | 10.0 | 0.00 | 0.00 | 0.00 | ||
| 20260503180221 | 72 | 180 | 4.0 | 7.0 | 0.00 | 0.00 | 0.00 | ||
| 20260503175818 | 72 | 193 | 8.0 | 12.0 | 0.00 | 0.00 | 0.00 | ||
| 20260503175416 | 73 | 180 | 7.0 | 10.0 | 0.00 | 0.00 | 0.00 | ||
| 20260503175015 | 73 | 182 | 7.0 | 10.0 | 0.00 | 0.00 | 0.00 | ||
| 20260503174614 | 73 | 192 | 8.0 | 14.0 | 0.00 | 0.00 | 0.00 | ||
| 20260503174211 | 73 | 183 | 8.0 | 11.0 | 0.00 | 0.00 | 0.00 | ||
| 20260503173810 | 74 | 178 | 9.0 | 10.0 | 0.00 | 0.00 | 0.00 | ||
| 20260503173402 | 74 | 181 | 9.0 | 12.0 | 0.00 | 0.00 | 0.00 | ||
| 20260503173000 | 75 | 171 | 5.0 | 8.0 | 0.00 | 0.00 | 0.00 | ||
| 20260503172558 | 75 | 172 | 8.0 | 11.0 | 0.00 | 0.00 | 0.00 | ||
| 20260503172157 | 75 | 172 | 8.0 | 13.0 | 0.00 | 0.00 | 0.00 | ||
| 20260503171755 | 75 | 183 | 9.0 | 12.0 | 0.00 | 0.00 | 0.00 | ||
| 20260503171354 | 75 | 170 | 9.0 | 13.0 | 0.00 | 0.00 | 0.00 | ||
| 20260503170952 | 76 | 169 | 7.0 | 10.0 | 0.00 | 0.00 | 0.00 | ||
| 20260503170550 | 76 | 182 | 8.0 | 14.0 | 0.00 | 0.00 | 0.00 | ||
| 20260503170149 | 76 | 171 | 8.0 | 10.0 | 0.00 | 0.00 | 0.00 | ||
| 20260503160112 | 80 | 198 | 10.0 | 14.0 | 0.00 | 0.00 | 0.00 | ||
| 20260503150841 | 81 | 225 | 5.0 | 11.0 | 0.00 | 0.00 | 0.00 | ||
| 20260503150440 | 80 | 225 | 2.0 | 4.0 | 0.00 | 0.00 | 0.00 | ||
| 20260503131134 | 79 | 196 | 3.0 | 7.0 | 0.00 | 0.00 | 0.00 | ||
| 20260503130731 | 80 | 188 | 4.0 | 7.0 | 0.00 | 0.00 | 0.00 | ||
| 20260503130330 | 79 | 201 | 7.0 | 12.0 | 0.00 | 0.00 | 0.00 | ||
| 20260503110620 | 76 | 199 | 3.0 | 5.0 | 0.00 | 0.00 | 0.00 | ||
| 20260503110220 | 77 | 201 | 7.0 | 10.0 | 0.00 | 0.00 | 0.00 | ||
| 20260503100142 | 75 | 164 | 4.0 | 10.0 | 0.00 | 0.00 | 0.00 | ||
| 20260503090511 | 73 | 136 | 9.0 | 14.0 | 0.00 | 0.00 | 0.00 | ||
| 20260503090110 | 73 | 108 | 8.0 | 11.0 | 0.00 | 0.00 | 0.00 | ||
| 20260503081243 | 70 | 123 | 9.0 | 12.0 | 0.00 | 0.00 | 0.00 | ||
| 20260503080835 | 69 | 131 | 10.0 | 14.0 | 0.00 | 0.00 | 0.00 | ||
| 20260503080433 | 69 | 135 | 11.0 | 16.0 | 0.00 | 0.00 | 0.00 | ||
| 20260503072811 | 68 | 146 | 8.0 | 13.0 | 0.00 | 0.00 | 0.00 | ||
| 20260503072408 | 68 | 136 | 11.0 | 14.0 | 0.00 | 0.00 | 0.00 | ||
| 20260503072007 | 68 | 139 | 12.0 | 19.0 | 0.00 | 0.00 | 0.00 | ||
| 20260503071606 | 68 | 138 | 8.0 | 13.0 | 0.00 | 0.00 | 0.00 | ||
| 20260503071204 | 68 | 143 | 10.0 | 14.0 | 0.00 | 0.00 | 0.00 | ||
| 20260503070802 | 70 | 131 | 10.0 | 18.0 | 0.00 | 0.00 | 0.00 | ||
| 20260503070400 | 73 | 149 | 11.0 | 16.0 | 0.00 | 0.00 | 0.00 | ||
| 20260503060323 | 65 | 140 | 10.0 | 17.0 | 0.00 | 0.00 | 0.00 | ||
| 20260503055118 | 65 | 127 | 10.0 | 15.0 | 0.00 | 0.00 | 0.00 | ||
| 20260503054717 | 65 | 129 | 10.0 | 12.0 | 0.00 | 0.00 | 0.00 | ||
| 20260503054315 | 65 | 138 | 8.0 | 14.0 | 0.00 | 0.00 | 0.00 | ||
| 20260503053913 | 65 | 132 | 8.0 | 12.0 | 0.00 | 0.00 | 0.00 | ||
| 20260503053512 | 65 | 148 | 8.0 | 11.0 | 0.00 | 0.00 | 0.00 | ||
| 20260503053110 | 64 | 150 | 9.0 | 13.0 | 0.00 | 0.00 | 0.00 | ||
| 20260503052702 | 64 | 136 | 9.0 | 14.0 | 0.00 | 0.00 | 0.00 | ||
| 20260503052259 | 64 | 136 | 7.0 | 10.0 | 0.00 | 0.00 | 0.00 | ||
| 20260503051858 | 64 | 149 | 7.0 | 12.0 | 0.00 | 0.00 | 0.00 | ||
| 20260503051457 | 64 | 140 | 7.0 | 11.0 | 0.00 | 0.00 | 0.00 | ||
| 20260503051056 | 63 | 141 | 7.0 | 13.0 | 0.00 | 0.00 | 0.00 | ||
| 20260503050653 | 63 | 142 | 9.0 | 13.0 | 0.00 | 0.00 | 0.00 | ||
| 20260503050252 | 63 | 138 | 8.0 | 10.0 | 0.00 | 0.00 | 0.00 | ||
| 20260503045851 | 63 | 145 | 7.0 | 10.0 | 0.00 | 0.00 | 0.00 | ||
| 20260503045450 | 63 | 144 | 7.0 | 10.0 | 0.00 | 0.00 | 0.00 | ||
| 20260503045047 | 62 | 145 | 7.0 | 11.0 | 0.00 | 0.00 | 0.00 | ||
| 20260503044639 | 62 | 132 | 7.0 | 12.0 | 0.00 | 0.00 | 0.00 | ||
| 20260503044237 | 62 | 131 | 7.0 | 10.0 | 0.00 | 0.00 | 0.00 | ||
| 20260503043836 | 61 | 143 | 8.0 | 10.0 | 0.00 | 0.00 | 0.00 | ||
| 20260503043435 | 61 | 138 | 8.0 | 14.0 | 0.00 | 0.00 | 0.00 | ||
| 20260503043032 | 61 | 140 | 7.0 | 11.0 | 0.00 | 0.00 | 0.00 | ||
| 20260503042631 | 60 | 151 | 7.0 | 9.0 | 0.00 | 0.00 | 0.00 | ||
| 20260503042229 | 61 | 145 | 7.0 | 10.0 | 0.00 | 0.00 | 0.00 | ||
| 20260503041828 | 60 | 139 | 5.0 | 9.0 | 0.00 | 0.00 | 0.00 | ||
| 20260503041426 | 60 | 127 | 8.0 | 13.0 | 0.00 | 0.00 | 0.00 | ||
| 20260503041024 | 60 | 146 | 5.0 | 8.0 | 0.00 | 0.00 | 0.00 | ||
| 20260503040616 | 60 | 142 | 6.0 | 11.0 | 0.00 | 0.00 | 0.00 | ||
| 20260503040214 | 59 | 136 | 6.0 | 10.0 | 0.00 | 0.00 | 0.00 | ||
| 20260503035812 | 59 | 121 | 5.0 | 8.0 | 0.00 | 0.00 | 0.00 | ||
| 20260503035411 | 59 | 129 | 6.0 | 10.0 | 0.00 | 0.00 | 0.00 | ||
| 20260503035009 | 58 | 133 | 7.0 | 10.0 | 0.00 | 0.00 | 0.00 | ||
| 20260503034608 | 58 | 135 | 5.0 | 9.0 | 0.00 | 0.00 | 0.00 | ||
| 20260503034205 | 58 | 153 | 6.0 | 10.0 | 0.00 | 0.00 | 0.00 | ||
| 20260503033804 | 57 | 129 | 6.0 | 10.0 | 0.00 | 0.00 | 0.00 | ||
| 20260503033403 | 58 | 140 | 5.0 | 10.0 | 0.00 | 0.00 | 0.00 | ||
| 20260503033001 | 58 | 131 | 6.0 | 10.0 | 0.00 | 0.00 | 0.00 | ||
| 20260503032553 | 58 | 138 | 6.0 | 8.0 | 0.00 | 0.00 | 0.00 | ||
| 20260503032150 | 57 | 124 | 6.0 | 9.0 | 0.00 | 0.00 | 0.00 | ||
| 20260503031749 | 58 | 129 | 6.0 | 10.0 | 0.00 | 0.00 | 0.00 | ||
| 20260503031348 | 57 | 125 | 6.0 | 9.0 | 0.00 | 0.00 | 0.00 | ||
| 20260503030947 | 57 | 121 | 5.0 | 8.0 | 0.00 | 0.00 | 0.00 | ||
| 20260503030545 | 58 | 126 | 6.0 | 8.0 | 0.00 | 0.00 | 0.00 | ||
| 20260503030143 | 57 | 123 | 7.0 | 10.0 | 0.00 | 0.00 | 0.00 | ||
| 20260503025742 | 57 | 136 | 6.0 | 9.0 | 0.00 | 0.00 | 0.00 | ||
| 20260503025341 | 57 | 135 | 7.0 | 9.0 | 0.00 | 0.00 | 0.00 | ||
| 20260503024938 | 57 | 153 | 6.0 | 8.0 | 0.00 | 0.00 | 0.00 | ||
| 20260503024530 | 57 | 156 | 6.0 | 8.0 | 0.00 | 0.00 | 0.00 | ||
| 20260503024128 | 57 | 142 | 5.0 | 7.0 | 0.00 | 0.00 | 0.00 | ||
| 20260503023727 | 57 | 154 | 5.0 | 6.0 | 0.00 | 0.00 | 0.00 | ||
| 20260503023325 | 57 | 131 | 5.0 | 8.0 | 0.00 | 0.00 | 0.00 | ||
| 20260503022923 | 57 | 141 | 5.0 | 7.0 | 0.00 | 0.00 | 0.00 | ||
| 20260503022522 | 57 | 141 | 6.0 | 9.0 | 0.00 | 0.00 | 0.00 | ||
| 20260503022120 | 57 | 146 | 7.0 | 9.0 | 0.00 | 0.00 | 0.00 | ||
| 20260503021719 | 57 | 140 | 7.0 | 10.0 | 0.00 | 0.00 | 0.00 | ||
| 20260503021317 | 57 | 150 | 7.0 | 8.0 | 0.00 | 0.00 | 0.00 | ||
| 20260503020915 | 57 | 154 | 5.0 | 7.0 | 0.00 | 0.00 | 0.00 | ||
| 20260503020507 | 57 | 159 | 4.0 | 6.0 | 0.00 | 0.00 | 0.00 |